AirNav  
 
 1551 users online  

FL85 Baptist Hospital Heliport
Pensacola, Florida, USA

GOING TO PENSACOLA?


FAA INFORMATION EFFECTIVE 29 MARCH 2018

Location

FAA Identifier: FL85
Lat/Long: 30-25-45.7110N / 087-13-51.8950W
30-25.761850N / 087-13.864917W
30.4293642 / -87.2310819
(estimated)
Elevation: 115 ft. / 35 m (estimated)
Variation: 01E (1985)
Time zone: UTC -5 (UTC -6 during Standard Time)
Zip code: 32501

Heliport Operations

Heliport use: Private use. Permission required prior to landing
Activation date: 01/1974
Control tower: no
ARTCC: JACKSONVILLE CENTER
FSS: GAINESVILLE FLIGHT SERVICE STATION
Attendance: CONTINUOUS
Wind indicator: yes
Segmented circle: no
Beacon: white-green-yellow (heliport)
24 HRS

Heliport Communications

WX ASOS at PNS (4 nm NE): PHONE 850-436-4799
  • 122.825 USED INFREQUENTLY FOR COMMUNICATIONS.

Nearby radio navigation aids

VOR radial/distance  VOR name  Freq  Var
NUNr114/(6.0)SAUFLEY VOR108.8001E
CEWr227/37.1CRESTVIEW VORTAC115.9003E

 
NDB name  Hdg/Dist  Freq  Var  ID
PICKENS262/2.832602WPKZ .--. -.- --..

Heliport Services

Airframe service: NONE
Powerplant service: NONE

Runway Information

Helipad H1

Dimensions: 52 x 52 ft. / 16 x 16 m
Surface: concrete, in fair condition
Runway edge lights: PERIMETER LGTS.
Latitude: 30-25.761850N
Longitude: 087-13.864917W
Elevation: 115.0 ft.
Traffic pattern: rightleft
Markings: none, in fair condition

Heliport Ownership and Management from official FAA records

Ownership: Privately-owned
Owner: BAPTIST HOSPITAL
1000 W MORENO ST
PENSACOLA, FL 32501
Phone (850) 469-2304
Manager: DAVID KOVACH
1000 W MORENO ST
PENSACOLA, FL 32501
Phone (850) 469-2304

Heliport Operational Statistics

Aircraft based on the field: 2
Single engine airplanes: 1
Helicopters: 1
    

Additional Remarks

A52-H1 PLINES EAST OF FACILITY.

Instrument Procedures

There are no published instrument procedures at FL85.

Some nearby airports with instrument procedures:

KPNS - Pensacola International Airport (4 nm NE)
KNPA - Pensacola Naval Air Station/Forrest Sherman Field (6 nm SW)
2R4 - Peter Prince Field Airport (18 nm NE)
KNDZ - Whiting Field Naval Air Station South (20 nm NE)
KNSE - Whiting Field Naval Air Station North (21 nm NE)
 
Loc | Ops | Rwys | IFR | FBO | Links
Com | Nav | Svcs | Stats | Notes

Continental Motors
AirBoss

 
Area around FL85 (Baptist Hospital Heliport)
 
Road maps at: MapQuest Bing Google
 
Aerial photo
No photo
 
Sectional chart

 
Airport distance calculator
Flying to Baptist Hospital Heliport? Find the distance to fly.

From to FL85

Sunrise and sunset
Times for 20-Apr-2018
 Local
(UTC-5)
 Zulu
(UTC)
Morning civil twilight05:5210:52
Sunrise06:1711:17
Sunset19:1900:19
Evening civil twilight19:4300:43

Current date and time
Zulu (UTC)  20-Apr-2018 16:14:30
Local (UTC-5)  20-Apr-2018 11:14:30
 
METAR
KPNS 
4nm NE 
201553Z VRB06KT 10SM CLR 18/04 A3023 RMK AO2 SLP239 T01780044
KNPA 
7nm SW 
201556Z 04007KT 10SM BKN250 18/04 A3024 RMK AO2 SLP240 T01830044
2R4 
18nm NE 
SuperAWOS
201535Z AUTO 04007KT 16/04 A3021
KNDZ 
20nm NE 
201556Z VRB06KT 10SM FEW010 SCT250 17/06 A3024 RMK AO2 SLP226 FU FEW010 FU N AND DSNT W T01720056 $
TAF
KPNS 
4nm NE 
201135Z 2012/2112 03010KT P6SM FEW250 FM202000 10009KT P6SM FEW250 FM210300 07011KT P6SM SCT250
KNPA 
7nm SW 
2007/2107 01012KT 9999 SCT200 QNH3013INS BECMG 2016/2018 05008KT QNH3018INS BECMG 2100/2102 09010KT FEW030 SCT250 QNH3012INS AUTOMATED SENSOR METWATCH 2007 TIL 2011 T11/2010Z T22/2020Z FN00170
NOTAMs
Click for the latest NOTAMs
NOTAMs are issued by the DoD/FAA and will open in a separate window not controlled by AirNav.

 

 
 

Would you like to see your business listed on this page?

 If your business provides an interesting product or service to pilots, flight crews, aircraft, or users of the Baptist Hospital Heliport, you should consider listing it here.  To start the listing process, click on the button below
 
Add a business
 

Other Pages about Baptist Hospital Heliport

Update a link
 
Copyright © AirNav, LLC. All rights reserved. Privacy Policy  Contact